This is the latest recevied weather packets stored in our database for station/object K2RMB. If no packets are shown the sender has not sent any weather packets the latest 10 day(s).
| Time | Temp. | Humidity | Pressure | Rain* | Wind** | Luminosity | Snow |
|---|---|---|---|---|---|---|---|
| 1777745337 | 10.56° C | 58% | 1012.1 hPa | 0 mm | - | 407 W/m² | - |
| 1777745034 | 9.44° C | 59% | 1012.1 hPa | 0 mm | - | 300 W/m² | - |
| 1777744730 | 8.89° C | 57% | 1012.5 hPa | 0 mm | - | 774 W/m² | - |
| 1777744424 | 8.89° C | 64% | 1012.5 hPa | 0 mm | - | 338 W/m² | - |
| 1777744121 | 8.89° C | 65% | 1012.5 hPa | 0 mm | - | 413 W/m² | - |
| 1777743818 | 8.33° C | 64% | 1012.5 hPa | 0 mm | - | 1151 W/m² | - |
| 1777743514 | 8.33° C | 65% | 1012.1 hPa | 0 mm | - | 298 W/m² | - |
| 1777743212 | 8.33° C | 62% | 1012.5 hPa | 0 mm | - | 187 W/m² | - |
| 1777742910 | 8.33° C | 63% | 1012.5 hPa | 0 mm | - | 269 W/m² | - |
| 1777742606 | 8.33° C | 66% | 1012.5 hPa | 0 mm | - | 231 W/m² | - |
| 1777742302 | 8.33° C | 70% | 1012.1 hPa | 0 mm | - | 152 W/m² | - |
| 1777741999 | 8.89° C | 66% | 1012.5 hPa | 0 mm | - | 257 W/m² | - |
| 1777741696 | 8.33° C | 66% | 1012.1 hPa | 0 mm | - | 329 W/m² | - |
| 1777741392 | 8.33° C | 67% | 1012.5 hPa | 0 mm | - | 275 W/m² | - |
| 1777741088 | 7.78° C | 72% | 1012.5 hPa | 0 mm | - | 199 W/m² | - |
| 1777740786 | 8.33° C | 74% | 1012.5 hPa | 0 mm | - | 151 W/m² | - |
| 1777740483 | 8.89° C | 73% | 1012.5 hPa | 0 mm | - | 140 W/m² | - |
| 1777740180 | 8.33° C | 72% | 1012.5 hPa | 0 mm | - | 225 W/m² | - |
| 1777739875 | 7.78° C | 72% | 1012.5 hPa | 0 mm | - | 238 W/m² | - |
| 1777739572 | 7.78° C | 73% | 1012.5 hPa | 0 mm | - | 171 W/m² | - |
| 1777739269 | 7.78° C | 73% | 1012.9 hPa | 0 mm | - | 206 W/m² | - |
| 1777738966 | 8.33° C | 72% | 1012.9 hPa | 0 mm | - | 272 W/m² | - |
| 1777738663 | 7.78° C | 76% | 1012.9 hPa | 0 mm | - | 243 W/m² | - |
| 1777738359 | 7.22° C | 74% | 1012.9 hPa | 0 mm | - | 225 W/m² | - |
| 1777738058 | 7.22° C | 78% | 1012.9 hPa | 0 mm | - | 214 W/m² | - |
* Rain latest hour (hover to see other rain measurements)
** Current wind speed in m/s (hover to see current wind gust speed)